Date,TemperatureHighF,TemperatureAvgF,TemperatureLowF,DewpointHighF,DewpointAvgF,DewpointLowF,HumidityHigh,HumidityAvg,HumidityLow,PressureMaxIn,PressureMinIn,WindSpeedMaxMPH,WindSpeedAvgMPH,GustSpeedMaxMPH,PrecipitationSumIn
2013-1-1,17.2,2.1,-15.9,7.6,-10.6,-29.2,67,54,43,30.27,30.05,8,3,11,0.00
2013-1-2,21.4,12.9,6.1,14.4,2.4,-3.4,75,62,49,30.07,29.96,8,3,12,0.00
2013-1-3,21.7,12.9,5.9,14.6,2.3,-6.2,74,62,50,30.25,30.06,14,7,16,0.00
2013-1-4,32.9,19.1,5.4,15.5,7.1,-4.4,68,59,48,30.14,30.03,13,5,17,0.01
2013-1-5,29.3,14.3,1.6,17.4,4.0,-8.0,69,63,55,30.12,29.87,12,3,14,0.00
2013-1-6,24.1,13.8,5.4,6.9,2.7,-4.4,72,61,46,30.22,29.99,11,5,15,0.00
2013-1-7,37.4,26.5,13.8,25.2,16.0,5.3,75,64,56,30.09,29.93,23,7,27,0.00
2013-1-8,36.7,23.4,7.3,26.6,14.6,-1.9,76,69,58,30.01,29.80,12,5,17,0.00
2013-1-9,38.3,29.4,17.6,23.9,18.9,8.9,76,65,49,30.37,29.93,22,7,22,0.00
2013-1-10,41.0,31.3,21.2,30.7,21.4,13.0,85,67,44,30.35,29.77,17,6,18,0.25
2013-1-11,41.4,37.2,34.3,39.2,33.9,30.3,92,88,84,29.77,29.43,17,6,23,0.01
2013-1-12,40.6,18.8,6.3,38.2,7.9,-7.1,91,62,50,30.07,29.44,29,12,32,0.00
2013-1-13,10.9,5.8,2.1,-2.0,-6.7,-9.1,60,55,49,30.24,30.02,13,7,17,0.00
2013-1-14,17.6,8.5,2.8,3.9,-2.6,-7.8,65,60,52,30.39,30.24,13,3,16,0.00
2013-1-15,33.8,21.5,6.6,16.2,9.0,-2.7,71,58,45,30.31,29.89,21,7,22,0.00
2013-1-16,23.5,22.8,22.3,11.4,10.6,9.9,60,59,57,29.89,29.79,18,12,19,0.00
2013-1-17,21.7,13.6,5.7,6.3,-0.8,-8.2,62,52,37,30.40,30.21,17,5,17,0.00
2013-1-18,46.4,31.7,17.4,31.1,21.4,6.4,78,66,53,30.29,29.75,14,7,14,0.00
2013-1-19,42.3,25.9,3.2,30.9,15.1,-12.1,84,64,43,30.18,29.71,37,12,37,0.01
2013-1-20,11.3,5.2,-0.8,-6.7,-11.9,-17.3,55,44,33,30.37,30.20,18,11,23,0.00
2013-1-21,-1.1,-5.5,-10.5,-18.1,-22.9,-28.9,49,41,34,30.32,30.24,23,12,26,0.00
2013-1-22,6.8,-1.8,-10.3,-9.6,-18.1,-25.6,51,44,37,30.37,30.23,13,5,14,0.00
2013-1-23,18.9,9.1,-4.0,4.8,-7.6,-26.2,65,46,30,30.55,30.13,26,10,30,0.00
2013-1-24,13.5,3.4,-5.8,-3.8,-17.6,-26.2,45,36,26,30.64,30.19,16,8,20,0.00
2013-1-25,22.1,13.7,3.6,10.1,-0.9,-9.6,64,51,39,30.28,29.96,24,10,30,0.00
2013-1-26,25.3,13.5,-1.3,6.5,-2.8,-13.8,59,48,37,30.34,30.15,16,7,19,0.00
2013-1-27,32.4,29.9,25.3,27.6,19.6,6.5,85,67,44,30.15,29.80,17,5,19,0.01
2013-1-28,32.5,31.5,30.6,28.8,27.7,26.6,87,85,85,29.93,29.63,0,0,1,0.08
2013-1-29,34.3,32.4,28.4,29.6,27.6,20.9,87,82,73,29.70,29.52,25,7,26,0.08
2013-1-30,28.4,19.0,11.3,19.4,8.5,-0.2,70,63,55,29.73,29.58,27,17,30,0.00
2013-1-31,11.3,2.3,-6.9,-0.1,-11.7,-21.6,60,51,44,30.24,29.73,25,14,29,0.00
2013-2-1,8.1,-0.4,-10.8,-4.0,-16.1,-26.5,61,47,35,30.30,30.03,17,7,19,0.00
2013-2-2,13.5,7.5,3.0,-0.1,-4.8,-8.7,62,56,45,30.16,29.95,11,4,11,0.00
2013-2-3,16.3,11.3,4.1,3.9,-0.4,-6.9,69,59,45,30.08,29.94,15,6,22,0.00
2013-2-4,20.3,9.9,-3.1,3.4,-3.7,-14.0,68,54,34,30.05,29.82,11,3,14,0.02
2013-2-5,30.2,19.1,-0.8,22.5,10.0,-11.5,77,67,58,30.09,29.69,21,6,21,0.00
2013-2-6,29.8,16.3,-5.4,20.1,6.9,-16.2,75,66,58,30.12,29.93,15,3,18,0.00
2013-2-7,26.4,24.5,16.7,20.8,17.5,9.3,80,74,65,30.22,29.96,17,7,17,0.00
2013-2-8,29.7,24.1,21.6,16.3,12.6,6.7,70,62,45,30.37,30.22,16,6,17,0.01
2013-2-9,31.3,27.7,23.9,23.7,20.4,15.9,79,73,68,30.25,29.94,21,11,23,0.00
2013-2-10,35.4,32.2,28.6,31.7,27.3,22.5,86,82,76,29.95,29.27,21,7,22,0.45
2013-2-11,32.4,25.3,19.2,28.7,17.5,8.4,86,72,62,30.04,29.31,24,12,27,0.00
2013-2-12,39.9,25.8,16.0,24.1,15.5,6.0,76,65,51,30.06,29.82,19,5,20,0.07
2013-2-13,39.7,28.8,15.4,29.6,20.3,8.4,82,70,56,29.82,29.57,9,3,11,0.02
2013-2-14,34.5,27.9,14.2,29.3,17.6,-2.9,84,66,37,30.15,29.57,23,9,27,0.04
2013-2-15,18.0,10.3,3.9,-1.0,-4.8,-8.5,58,50,37,30.28,30.15,17,7,19,0.00
2013-2-16,19.4,6.3,-2.2,2.5,-6.8,-13.9,62,54,42,30.23,30.11,8,2,8,0.00
2013-2-17,33.1,21.2,-0.8,18.6,8.3,-12.6,63,57,49,30.12,29.66,22,9,25,0.00
2013-2-18,35.8,24.0,6.6,27.5,14.0,-4.0,78,65,57,29.77,29.56,25,11,28,0.00
2013-2-19,7.0,3.4,-2.2,-4.0,-11.3,-18.2,62,50,41,30.32,29.77,27,15,30,0.00
2013-2-20,15.1,3.8,-8.0,-1.7,-10.9,-22.5,58,50,43,30.42,30.32,11,4,12,0.00
2013-2-21,23.4,12.6,-1.5,10.2,-1.1,-13.2,70,54,45,30.41,30.03,14,6,19,0.00
2013-2-22,29.5,22.8,18.3,18.5,14.5,10.6,78,70,57,30.03,29.84,13,6,17,0.07
2013-2-23,28.9,18.4,0.7,17.2,8.5,-10.5,75,65,54,29.98,29.85,12,4,12,0.01
2013-2-24,35.1,16.2,-4.5,17.5,4.2,-15.7,67,58,48,30.10,29.97,7,1,7,0.00
2013-2-25,37.0,29.3,22.6,24.9,20.3,15.1,76,69,58,30.11,30.03,4,1,7,0.00
2013-2-26,38.1,28.0,15.1,25.0,18.4,7.4,78,67,55,30.03,29.83,16,6,21,0.00
2013-2-27,36.7,31.3,28.4,22.8,21.2,19.7,71,66,56,29.99,29.83,21,11,25,0.00
2013-2-28,30.2,27.8,24.1,20.8,16.7,12.2,68,63,57,30.19,29.98,17,10,17,0.00
2013-3-1,30.4,22.7,10.4,15.0,9.5,1.1,65,57,49,30.32,30.18,15,7,17,0.00
2013-3-2,29.1,15.3,1.2,9.5,0.7,-10.0,66,53,31,30.33,30.17,10,2,10,0.00
2013-3-3,34.3,19.8,8.2,10.8,3.1,-2.3,66,50,27,30.18,30.02,12,2,15,0.67
2013-3-4,27.5,24.9,21.7,22.3,17.3,12.5,91,73,58,30.07,29.96,9,6,12,0.00
2013-3-5,29.3,25.7,21.1,24.5,22.4,18.4,92,87,81,30.28,29.99,8,4,9,0.27
2013-3-6,26.4,18.6,1.8,19.7,13.5,-1.7,91,80,68,30.43,30.29,9,4,13,0.15
2013-3-7,31.3,14.9,-1.5,20.2,8.6,-5.2,88,77,61,30.45,30.35,6,1,9,0.00
2013-3-8,40.1,28.9,13.5,30.7,23.2,11.1,91,79,68,30.40,30.13,9,4,12,0.00
2013-3-9,36.7,35.3,33.5,35.1,33.3,28.5,97,93,79,30.12,29.71,9,4,15,0.76
2013-3-10,35.6,33.6,30.0,33.8,30.5,27.4,97,89,77,29.91,29.73,13,8,16,0.19
2013-3-11,30.1,27.9,21.4,27.3,23.0,16.2,90,82,75,29.87,29.74,11,7,15,0.06
2013-3-12,29.0,23.6,15.9,20.1,17.3,12.5,86,77,60,30.19,29.86,11,6,13,0.00
2013-3-13,28.8,19.9,11.3,19.0,14.1,8.9,90,78,63,30.42,30.20,7,3,10,0.00
2013-3-14,37.7,28.0,19.8,29.0,23.4,16.3,93,83,69,30.33,30.03,7,2,11,0.02
2013-3-15,33.8,30.9,25.2,31.7,28.9,23.5,96,92,90,30.05,29.81,7,2,10,0.05
2013-3-16,29.0,23.4,15.0,27.7,16.4,9.4,95,75,65,30.25,29.86,10,6,14,0.00
2013-3-17,28.2,19.2,8.3,21.5,11.0,2.3,82,71,59,30.28,29.94,10,5,15,0.00
2013-3-18,29.9,22.1,11.9,28.1,17.8,7.7,94,84,71,29.94,29.64,12,8,21,0.21
2013-3-19,22.1,12.8,6.0,9.8,4.9,0.6,84,71,57,30.23,29.85,11,8,15,0.00
2013-3-20,19.3,11.4,3.6,6.5,2.1,-2.5,77,66,55,30.26,30.16,12,7,16,0.00
2013-3-21,20.0,9.2,0.9,10.1,4.4,-2.6,88,81,65,30.18,30.11,2,0,2,0.00
2013-3-22,31.7,17.4,0.2,18.0,9.2,-2.8,89,72,49,30.15,30.09,4,1,5,0.00
2013-3-23,35.2,25.6,11.4,21.9,17.1,9.0,91,71,52,30.19,30.10,6,2,8,0.00
2013-3-24,31.7,28.6,24.9,24.6,22.2,19.4,84,77,72,30.12,29.96,12,4,15,0.00
2013-3-25,36.0,28.4,21.6,22.8,19.8,16.7,86,71,52,30.23,30.02,11,7,15,0.00
2013-3-26,37.4,29.2,22.9,25.6,21.9,18.8,86,74,55,30.32,30.23,5,3,10,0.00
2013-3-27,39.6,28.0,15.0,22.4,19.2,13.3,93,72,45,30.37,30.33,4,1,7,0.00
2013-3-28,41.2,28.9,15.5,27.2,21.4,13.7,93,76,47,30.38,30.31,4,1,5,0.00
2013-3-29,47.0,35.0,22.9,35.3,28.1,21.2,93,77,54,30.32,30.12,8,2,8,0.00
2013-3-30,48.0,40.5,33.0,42.9,36.7,32.2,98,86,73,30.11,29.84,8,3,13,0.22
2013-3-31,39.1,33.9,26.1,32.1,24.2,17.4,97,69,48,30.07,29.80,15,9,20,0.00
2013-4-1,32.6,26.9,18.6,19.5,16.6,13.2,80,65,52,30.28,30.07,11,7,16,0.00
2013-4-2,35.0,27.4,19.3,19.9,17.6,15.5,89,68,46,30.38,30.28,11,5,18,0.00
2013-4-3,42.3,30.0,16.6,29.8,22.2,14.7,94,75,49,30.46,30.14,9,3,15,0.00
2013-4-4,49.9,40.4,31.0,37.9,30.2,25.9,84,68,44,30.15,30.04,10,5,14,0.00
2013-4-5,42.8,33.3,25.3,32.8,26.9,21.7,96,79,48,30.24,29.94,8,4,12,0.08
2013-4-6,55.7,42.7,34.7,48.6,36.3,26.6,96,78,64,29.93,29.46,12,7,16,0.06
2013-4-7,48.6,39.9,34.9,40.0,35.4,31.4,94,84,69,29.95,29.73,8,3,11,0.06
2013-4-8,51.0,44.1,38.8,46.0,41.3,37.9,97,90,81,30.00,29.68,8,3,11,0.27
2013-4-9,39.7,38.1,33.8,38.1,36.0,32.3,96,92,84,30.09,29.93,13,8,19,1.17
2013-4-10,36.2,32.7,29.2,32.7,30.0,27.2,95,90,77,30.14,29.88,14,8,21,0.37
2013-4-11,36.2,32.9,30.2,32.7,30.8,28.9,97,92,76,29.88,29.64,13,5,15,0.49
2013-4-12,34.0,30.8,28.4,30.3,28.6,27.0,96,91,82,29.84,29.64,9,4,12,0.05
2013-4-13,35.7,31.0,26.5,28.4,26.7,24.7,97,85,69,29.98,29.84,7,3,11,0.00
2013-4-14,36.7,33.2,29.9,36.2,31.9,26.6,98,95,86,29.97,29.50,11,6,15,0.67
2013-4-15,40.5,35.5,32.3,35.7,30.6,27.3,98,82,70,29.99,29.59,10,5,18,0.00
2013-4-16,43.8,36.9,32.8,31.8,30.6,29.1,89,78,61,30.32,29.99,6,2,8,0.00
2013-4-17,37.9,34.8,29.5,35.1,32.0,27.6,97,90,80,30.33,29.78,13,4,14,0.46
2013-4-18,35.8,33.9,30.7,34.8,32.9,29.9,97,96,94,29.86,29.45,13,8,17,0.35
2013-4-19,36.6,32.0,29.5,30.1,27.2,23.8,97,83,66,29.99,29.45,14,10,23,0.02
2013-4-20,40.8,32.9,23.4,27.5,19.9,14.6,83,61,37,30.32,29.99,5,2,10,0.00
2013-4-21,53.1,47.0,33.4,46.8,41.5,26.3,96,82,69,30.33,30.04,13,7,23,0.54
2013-4-22,44.4,37.7,32.3,42.5,36.6,31.5,98,96,93,30.18,30.03,12,5,15,0.72
2013-4-23,41.7,37.2,31.1,30.2,25.3,20.5,92,64,43,30.14,30.06,10,6,14,0.18
2013-4-24,53.5,40.0,27.3,33.7,26.9,21.2,79,62,31,30.08,29.89,12,4,21,0.07
2013-4-25,53.5,43.1,35.4,32.5,27.5,16.9,79,57,24,30.22,29.99,8,4,11,0.00
2013-4-26,75.4,58.7,41.9,46.0,35.9,26.5,92,46,19,30.12,30.00,9,5,14,0.00
2013-4-27,70.0,53.8,35.7,51.5,44.3,34.9,99,73,46,30.11,29.91,8,3,12,0.00
2013-4-28,76.2,61.8,46.1,53.9,46.6,40.3,88,60,35,29.91,29.64,10,4,16,0.13
2013-4-29,73.8,60.8,48.5,56.0,52.2,46.6,94,75,48,29.75,29.54,8,2,13,0.11
2013-4-30,74.8,64.0,53.2,57.7,49.9,38.4,87,63,36,29.91,29.44,11,5,19,0.02
2013-5-1,52.3,40.5,33.0,47.6,36.8,30.4,91,87,73,30.46,29.90,11,6,17,0.77
2013-5-2,36.9,34.2,32.0,31.4,30.2,28.8,92,85,73,30.51,30.40,10,2,13,1.25
2013-5-3,34.6,32.9,31.3,30.6,29.4,28.1,90,87,83,30.41,30.13,12,8,15,0.34
2013-5-4,48.7,39.7,32.9,39.1,35.0,30.4,91,84,69,30.15,30.09,6,3,8,0.14
2013-5-5,64.6,48.0,37.0,51.0,41.3,34.1,91,78,60,30.15,30.05,6,3,9,0.00
2013-5-6,73.4,55.8,38.1,51.7,44.6,36.3,93,70,34,30.09,29.99,4,1,6,0.00
2013-5-7,77.0,61.0,43.4,52.8,45.5,40.4,93,63,28,30.05,29.93,6,1,10,0.00
2013-5-8,78.4,61.9,47.4,56.4,48.7,43.5,91,67,31,29.97,29.89,7,2,12,0.33
2013-5-9,57.7,53.1,44.6,55.1,50.1,41.3,94,89,80,30.02,29.89,13,5,19,0.48
2013-5-10,63.9,50.2,38.0,43.2,36.3,26.2,88,63,24,30.07,29.90,8,4,11,0.00
2013-5-11,51.7,46.3,39.5,45.1,28.5,18.5,88,52,27,30.15,29.84,17,10,24,0.03
2013-5-12,56.2,43.1,29.7,29.6,24.2,17.2,85,52,22,30.21,30.09,10,4,15,0.00
2013-5-13,68.3,52.0,28.9,45.4,34.0,25.8,89,55,26,30.12,29.67,11,4,16,0.00
2013-5-14,96.8,73.5,47.6,56.3,45.3,28.0,86,43,15,29.67,29.39,15,5,23,0.00
2013-5-15,74.7,64.3,52.7,50.0,45.3,38.2,81,51,33,29.87,29.60,9,4,12,0.00
2013-5-16,81.1,66.1,46.4,50.1,45.0,38.2,90,53,23,29.88,29.79,7,2,8,0.00
2013-5-17,68.1,56.7,51.4,55.3,51.0,37.9,91,83,33,29.96,29.83,9,4,13,0.72
2013-5-18,79.7,66.6,54.3,65.8,58.1,50.8,90,76,56,29.98,29.77,8,4,13,0.00
2013-5-19,81.8,68.8,62.6,67.5,61.9,59.0,92,79,59,29.78,29.49,11,5,17,0.86
2013-5-20,72.2,65.6,57.7,61.3,58.6,54.2,93,79,62,29.57,29.46,10,5,15,0.34
2013-5-21,65.1,59.8,56.6,59.9,55.2,52.2,92,85,68,29.64,29.47,5,2,18,0.05
2013-5-22,56.6,53.9,50.6,54.1,51.0,47.3,92,90,85,29.91,29.61,9,4,14,0.22
2013-5-23,63.1,53.4,43.9,47.7,38.4,31.0,87,60,31,30.32,29.92,10,6,15,0.00
2013-5-24,67.2,53.3,33.8,50.5,40.1,31.2,91,63,40,30.39,30.18,7,2,11,0.12
2013-5-25,58.0,54.2,51.3,49.1,46.3,42.0,89,75,63,30.26,30.20,10,5,15,0.06
2013-5-26,55.9,52.1,49.1,48.9,44.2,39.3,88,75,64,30.22,30.04,11,5,17,0.05
2013-5-27,55.6,54.6,53.1,53.0,50.5,48.0,92,86,78,30.04,29.80,9,5,13,0.63
2013-5-28,59.6,55.5,51.8,56.9,53.2,49.8,94,92,89,29.80,29.68,4,2,10,0.01
2013-5-29,79.1,64.9,57.3,69.7,60.5,55.0,94,86,68,29.79,29.63,8,3,10,0.03
2013-5-30,76.6,68.7,63.2,64.5,62.1,59.6,92,80,63,29.65,29.48,11,6,19,0.19
2013-5-31,78.6,67.7,59.3,62.9,57.8,49.0,89,73,39,29.56,29.48,12,6,20,0.08
2013-6-1,71.1,60.7,50.6,58.2,52.7,43.3,92,76,54,29.87,29.52,12,4,19,0.03
2013-6-2,63.7,53.7,46.1,44.8,41.8,38.2,89,66,39,30.04,29.88,9,4,11,0.00
2013-6-3,68.2,57.3,40.2,48.9,43.4,38.1,93,64,39,30.06,29.90,5,1,7,0.00
2013-6-4,59.8,56.4,53.7,53.7,50.3,46.4,91,80,62,30.07,29.97,6,3,11,0.24
2013-6-5,59.5,55.7,53.5,56.6,52.9,49.3,93,90,85,30.03,29.90,5,2,7,0.12
2013-6-6,58.5,55.0,53.3,53.2,51.6,50.4,92,89,81,29.99,29.90,5,3,9,0.01
2013-6-7,66.0,57.1,51.4,54.5,51.2,49.2,93,82,61,30.02,29.90,3,1,6,0.00
2013-6-8,70.6,61.7,52.4,55.8,52.8,50.3,94,74,53,29.90,29.85,7,2,12,0.00
2013-6-9,71.3,61.7,55.9,63.0,56.9,52.6,92,84,75,29.88,29.71,8,4,13,0.30
2013-6-10,75.0,64.5,56.9,64.7,59.0,55.2,95,83,60,29.82,29.75,5,1,5,0.05
2013-6-11,81.3,67.8,53.3,69.0,61.8,51.6,94,82,62,29.86,29.75,6,1,9,0.01
2013-6-12,77.2,68.8,64.8,67.2,63.6,59.1,92,84,70,29.84,29.67,9,4,11,0.09
2013-6-13,77.0,67.0,55.6,60.0,54.1,50.2,90,65,46,30.03,29.82,7,3,12,0.00
2013-6-14,75.9,67.5,53.4,60.5,57.0,50.5,92,70,54,30.06,29.83,9,4,19,0.00
2013-6-15,76.6,68.5,60.3,67.4,62.7,58.3,93,82,65,29.90,29.76,10,2,13,0.19
2013-6-16,83.8,69.6,53.7,62.2,52.3,43.3,94,61,25,29.89,29.81,10,3,18,0.00
2013-6-17,81.5,69.8,56.5,60.7,53.7,49.4,90,60,33,29.93,29.83,9,3,15,0.00
2013-6-18,75.1,66.1,57.8,59.1,55.6,53.1,88,70,51,30.02,29.93,6,2,11,0.00
2013-6-19,81.6,69.5,55.3,62.8,56.4,52.1,91,65,41,30.06,29.91,7,3,11,0.00
2013-6-20,87.9,77.2,66.7,67.3,61.6,57.9,77,60,41,29.97,29.85,9,4,18,0.01
2013-6-21,81.3,71.9,63.8,68.6,64.4,60.4,92,78,61,29.97,29.70,12,4,14,0.76
2013-6-22,84.1,71.7,64.4,74.3,66.4,61.3,93,84,67,30.01,29.77,11,3,13,0.75
2013-6-23,80.6,72.7,66.5,70.2,66.2,62.5,92,81,63,29.85,29.68,8,4,14,0.17
2013-6-24,77.2,69.3,62.4,70.4,64.4,60.5,94,85,71,29.87,29.76,7,2,9,0.20
2013-6-25,83.3,72.7,63.4,74.5,67.6,61.3,94,85,70,29.80,29.67,7,2,8,0.22
2013-6-26,83.9,76.0,69.9,75.3,69.8,63.8,95,82,54,29.76,29.61,12,2,12,0.04
2013-6-27,84.6,74.4,63.2,68.6,60.4,52.1,94,66,35,29.77,29.73,13,4,16,0.00
2013-6-28,76.1,68.0,60.7,63.1,59.5,56.3,91,75,58,29.74,29.68,13,5,17,0.51
2013-6-29,72.7,66.1,61.4,61.2,58.2,50.8,93,77,59,29.91,29.68,11,4,21,0.34
2013-6-30,78.8,65.6,51.3,56.6,51.4,46.6,90,64,33,30.06,29.91,8,3,10,0.00
2013-7-1,81.5,68.0,52.3,60.4,54.5,49.0,94,67,34,30.14,30.06,4,1,7,0.00
2013-7-2,80.2,68.1,54.8,58.8,53.6,48.5,92,64,35,30.10,30.01,8,2,10,0.00
2013-7-3,81.2,68.7,53.3,61.0,54.3,47.5,93,64,32,30.03,29.92,3,1,5,0.00
2013-7-4,85.2,72.9,57.2,65.1,57.5,52.4,88,61,35,29.95,29.84,6,2,11,0.00
2013-7-5,87.4,76.5,61.6,63.9,59.1,55.4,82,56,40,29.89,29.80,10,4,19,0.00
2013-7-6,90.0,78.9,70.7,66.3,62.3,58.8,69,57,40,29.85,29.77,8,4,12,0.00
2013-7-7,88.5,80.2,71.3,72.1,67.3,63.6,92,66,50,29.81,29.74,8,2,9,0.64
2013-7-8,86.3,75.5,68.9,73.8,69.1,66.6,94,82,52,29.91,29.79,4,2,8,0.01
2013-7-9,83.9,75.9,67.2,71.9,68.5,64.5,93,79,59,29.91,29.74,10,3,15,1.69
2013-7-10,78.0,70.0,60.5,66.2,57.8,52.4,91,67,42,30.00,29.83,11,5,14,0.00
2013-7-11,60.2,58.8,57.4,57.8,56.6,55.4,93,92,91,30.03,30.00,0,0,0,0.00
2013-7-12,82.8,78.2,74.2,60.4,59.2,56.5,58,52,46,29.92,29.91,6,4,9,0.00
2013-7-13,74.7,69.4,62.5,63.4,61.4,59.3,90,76,60,30.04,29.91,10,4,18,0.34
2013-7-14,83.9,74.6,66.2,68.5,63.9,60.5,90,71,52,30.15,30.03,7,2,11,0.00
2013-7-15,86.6,74.7,62.0,70.8,65.6,59.8,93,75,50,30.20,30.11,4,1,12,0.00
2013-7-16,89.9,80.7,71.6,74.4,71.0,67.6,91,74,48,30.17,30.11,4,1,12,0.00
2013-7-17,90.7,81.0,69.5,73.4,69.9,67.1,93,71,47,30.20,30.06,5,1,8,0.00
2013-7-18,91.2,82.7,72.2,73.4,69.6,67.6,86,66,47,30.06,29.74,8,3,12,0.00
2013-7-19,82.6,77.6,65.2,71.7,65.3,58.8,87,67,47,29.83,29.67,10,4,16,0.09
2013-7-20,79.9,70.0,61.3,65.5,61.8,59.0,92,76,54,29.90,29.81,5,1,9,0.00
2013-7-21,77.5,67.5,60.9,68.3,61.9,56.0,91,82,71,29.90,29.77,7,2,11,0.26
2013-7-22,85.5,72.8,62.5,74.5,64.8,57.0,93,77,55,29.80,29.60,10,3,14,0.00
2013-7-23,73.9,64.7,54.9,57.3,54.0,50.6,91,70,48,29.98,29.77,10,3,14,0.00
2013-7-24,74.0,63.1,51.0,59.3,55.0,48.8,93,76,53,30.05,29.95,4,1,5,0.00
2013-7-25,80.5,68.1,57.3,67.6,61.0,53.7,92,79,61,29.97,29.87,6,2,9,0.07
2013-7-26,70.1,64.4,54.2,61.3,55.7,45.5,92,74,57,30.02,29.84,12,5,16,0.00
2013-7-27,61.4,54.7,49.3,50.9,47.2,44.1,86,76,55,30.02,29.90,14,5,18,0.04
2013-7-28,69.4,58.1,47.8,54.2,49.8,44.8,91,76,52,30.04,29.92,8,2,12,0.00
2013-7-29,76.1,61.2,45.2,57.3,51.8,43.0,93,74,46,30.11,30.04,5,1,8,0.00
2013-7-30,74.3,66.8,61.4,64.1,60.1,55.7,92,79,68,30.07,30.00,4,1,6,0.01
2013-7-31,78.0,67.8,57.8,68.0,61.0,54.9,94,81,51,30.04,29.93,8,2,16,0.03
2013-8-1,79.8,67.0,50.6,62.0,55.5,48.7,94,70,41,30.01,29.82,5,1,7,0.01
2013-8-2,75.8,65.5,53.1,59.1,55.2,50.2,94,72,41,30.00,29.80,7,2,12,0.00
2013-8-3,77.1,62.6,47.4,57.5,51.0,45.5,94,70,40,30.15,30.00,6,2,12,0.00
2013-8-4,72.8,61.0,46.1,57.8,52.4,43.9,93,75,43,30.20,30.00,3,0,4,0.00
2013-8-5,73.7,64.3,57.2,66.3,60.7,53.6,93,88,76,30.00,29.76,4,1,4,0.32
2013-8-6,83.5,68.5,53.6,67.8,60.9,51.9,95,79,50,29.82,29.65,14,2,20,0.27
2013-8-7,73.6,64.5,54.6,60.8,56.3,49.6,94,77,44,29.99,29.72,8,3,12,0.00
2013-8-8,75.0,62.6,48.6,59.9,54.3,46.7,94,76,48,30.02,29.95,4,1,6,0.00
2013-8-9,75.4,65.9,55.0,60.6,55.1,50.6,94,71,44,30.08,29.95,10,3,14,0.00
2013-8-10,74.2,63.9,53.4,58.1,54.8,50.8,92,74,50,30.15,30.06,5,1,6,0.00
2013-8-11,75.4,66.2,60.8,66.6,61.7,57.2,94,86,69,30.08,29.96,2,0,3,0.73
2013-8-12,76.9,67.4,59.1,63.5,58.4,52.9,95,75,45,30.02,29.94,9,2,13,0.00
2013-8-13,73.1,62.0,51.4,55.3,50.2,44.9,93,69,37,30.15,30.02,6,2,12,0.00
2013-8-14,74.4,60.3,46.9,58.0,51.2,45.0,94,75,42,30.18,30.08,5,1,7,0.00
2013-8-15,75.9,61.5,46.7,57.4,50.6,44.8,93,72,37,30.12,30.05,3,1,5,0.00
2013-8-16,77.4,63.1,49.2,61.2,53.9,47.3,94,75,42,30.17,30.11,3,1,5,0.00
2013-8-17,79.9,64.3,49.2,61.5,53.7,47.3,94,72,40,30.19,30.09,5,1,10,0.00
2013-8-18,79.4,66.2,51.0,60.8,55.7,48.9,93,72,44,30.13,30.00,6,2,9,0.00
2013-8-19,83.6,71.0,58.8,69.5,62.2,55.8,90,75,58,30.01,29.88,5,2,11,0.00
2013-8-20,86.7,76.5,67.1,72.6,66.9,61.1,83,72,60,29.90,29.82,7,3,13,0.00
2013-8-21,82.7,75.6,69.1,73.6,69.3,65.2,93,81,69,29.93,29.81,5,2,9,0.01
2013-8-22,83.1,73.4,61.2,70.2,63.1,56.1,94,74,42,30.06,29.92,8,2,12,0.02
2013-8-23,68.1,57.6,53.1,60.6,54.8,51.1,93,91,76,30.10,30.06,2,0,2,0.00
2013-8-25,91.8,85.4,79.8,74.9,72.9,70.7,77,67,54,29.93,29.90,8,4,18,0.00
2013-8-26,93.6,83.6,75.8,75.8,72.2,69.2,80,70,52,29.94,29.80,5,2,10,0.00
2013-8-27,90.9,82.2,71.5,75.2,71.8,68.0,89,72,55,29.83,29.73,4,2,10,0.00
2013-8-28,88.8,78.2,67.5,73.5,70.6,64.6,93,79,57,29.94,29.83,5,1,7,0.00
2013-8-29,91.7,79.4,69.8,75.4,70.0,66.8,94,75,46,29.95,29.81,6,2,11,0.00
2013-8-30,83.7,75.1,65.7,71.7,67.1,61.7,90,77,55,29.84,29.75,9,2,12,0.00
2013-8-31,83.9,70.8,58.6,69.2,64.2,56.6,94,81,58,29.83,29.67,5,1,9,0.02
2013-9-1,75.5,69.1,59.5,67.5,61.5,55.0,93,78,56,29.91,29.67,11,4,14,0.23
2013-9-2,65.2,57.3,48.0,54.9,51.5,45.8,92,81,63,30.05,29.91,7,2,10,0.00
2013-9-3,73.6,57.5,41.6,56.3,49.8,39.2,94,78,49,30.09,29.98,4,1,7,0.01
2013-9-4,85.8,67.5,50.3,69.9,59.9,48.4,93,79,54,30.10,30.00,5,1,10,0.00
2013-9-5,80.2,69.1,56.8,66.1,60.9,53.9,91,76,59,30.17,30.08,7,2,10,0.00
2013-9-6,88.3,74.5,64.6,67.9,63.6,60.6,92,72,41,30.08,29.84,7,2,12,0.00
2013-9-7,90.4,77.7,65.0,73.3,66.6,60.9,88,70,50,29.91,29.81,6,2,10,0.00
2013-9-8,78.1,70.7,66.3,65.1,62.7,59.7,86,76,61,29.98,29.84,7,4,10,0.00
2013-9-9,91.7,77.7,68.2,72.8,67.4,63.2,88,72,49,29.85,29.59,8,3,18,0.00
2013-9-10,83.0,73.7,64.5,68.1,64.6,60.7,93,74,47,29.92,29.70,6,1,8,0.00
2013-9-11,84.8,71.6,58.4,65.4,58.9,52.7,93,68,34,29.99,29.92,9,2,13,0.00
2013-9-12,73.7,61.4,48.4,54.7,49.0,42.6,89,67,36,30.18,29.99,11,4,16,0.00
2013-9-13,48.6,46.8,45.4,45.8,44.0,42.9,91,90,89,30.21,30.18,0,0,0,0.00
2013-9-14,59.5,57.7,55.9,55.4,54.1,53.3,92,88,81,29.94,29.85,6,2,10,0.54
2013-9-15,66.0,58.2,49.4,55.6,52.7,44.8,93,83,66,30.27,29.84,8,4,13,0.51
2013-9-16,66.2,51.6,39.5,47.4,41.9,36.8,93,72,35,30.39,30.25,5,1,8,0.00
2013-9-17,63.4,53.0,41.4,56.6,48.4,38.4,93,85,68,30.27,29.94,8,3,14,0.12
2013-9-18,72.2,66.7,58.7,68.4,63.5,56.7,94,89,80,29.94,29.69,7,3,11,0.44
2013-9-19,80.0,71.3,64.8,69.8,65.7,61.2,94,83,69,29.74,29.63,7,2,11,0.04
2013-9-20,64.9,59.0,49.0,61.0,51.9,45.9,89,78,59,29.89,29.71,10,5,14,0.00
2013-9-21,63.2,51.5,42.4,48.5,45.1,40.2,94,80,56,29.96,29.89,6,2,9,0.00
2013-9-22,71.7,55.1,38.9,55.0,47.4,36.5,94,77,54,29.99,29.86,8,3,16,0.00
2013-9-23,71.9,59.5,48.3,54.2,49.7,45.0,89,72,49,29.96,29.86,9,4,14,0.00
2013-9-24,74.3,57.8,45.9,56.1,49.5,43.7,93,76,45,29.95,29.88,6,2,9,0.00
2013-9-25,71.9,56.1,41.5,55.7,48.5,39.6,94,78,51,29.97,29.86,5,1,9,0.00
2013-9-26,80.3,64.3,49.6,61.1,54.3,46.2,93,72,48,29.94,29.84,11,4,18,0.00
2013-9-27,81.9,71.8,62.8,62.8,59.0,55.1,78,65,49,29.92,29.79,12,6,17,0.00
2013-9-28,70.0,60.6,43.3,62.3,53.3,41.1,92,78,61,29.94,29.63,10,4,21,0.29
2013-9-29,73.4,56.2,40.0,52.1,44.0,37.9,94,68,35,29.98,29.83,7,2,12,0.01
2013-9-30,75.5,65.1,56.0,53.7,48.8,45.2,73,56,42,29.83,29.62,12,6,24,0.00
2013-10-1,75.4,63.0,43.1,53.5,45.3,33.4,91,57,22,29.96,29.60,10,4,12,0.00
2013-10-2,75.7,57.0,37.2,54.3,42.1,35.1,94,64,27,30.05,29.81,12,3,16,0.12
2013-10-3,59.4,57.3,55.8,57.7,55.2,53.1,94,93,89,29.89,29.80,6,2,7,2.39
2013-10-4,59.0,58.1,56.9,57.0,56.1,54.9,94,93,89,29.93,29.79,8,4,13,0.16
2013-10-5,60.4,55.5,41.9,58.3,52.0,40.0,94,88,76,29.86,29.70,6,2,10,0.19
2013-10-6,53.1,47.2,39.3,48.4,43.5,37.7,94,87,66,29.82,29.67,8,2,12,0.03
2013-10-7,65.1,50.4,41.1,48.5,42.2,38.2,93,77,39,29.99,29.82,6,2,10,0.01
2013-10-8,74.6,58.9,41.6,48.5,43.6,39.4,93,62,32,29.99,29.87,10,4,17,0.00
2013-10-9,73.2,61.4,49.4,53.7,48.5,44.1,83,64,44,30.04,29.93,7,3,12,0.00
2013-10-10,72.7,57.5,44.3,50.6,47.4,41.3,89,71,42,30.03,29.89,7,2,10,0.00
2013-10-11,73.6,63.2,50.3,57.3,52.4,47.1,92,70,51,29.89,29.65,14,6,22,0.00
2013-10-12,66.0,52.1,37.5,55.9,41.7,34.6,89,69,49,30.16,29.69,10,3,18,0.00
2013-10-13,58.6,43.7,32.3,42.5,34.7,30.2,93,74,39,30.42,30.17,6,1,6,0.01
2013-10-14,54.5,46.0,32.9,45.2,37.4,30.8,92,74,53,30.41,29.93,9,3,16,0.04
2013-10-15,54.9,49.7,47.3,52.1,46.7,43.7,93,89,80,29.95,29.67,8,4,13,0.69
2013-10-16,48.4,43.6,32.3,46.2,39.9,30.2,92,87,76,29.93,29.75,9,4,13,0.00
2013-10-17,57.9,44.5,31.5,43.7,37.6,29.7,94,78,46,29.91,29.76,7,1,11,0.00
2013-10-18,51.5,43.4,35.8,42.5,33.9,27.4,87,72,40,29.95,29.81,11,5,15,0.00
2013-10-19,47.0,38.5,30.2,39.6,33.7,27.8,92,83,72,29.86,29.69,10,2,17,0.03
2013-10-20,50.0,37.5,26.9,43.5,33.4,24.6,92,85,68,29.86,29.61,11,3,15,0.05
2013-10-21,38.0,33.7,24.0,33.0,24.6,20.7,88,70,53,29.97,29.86,10,4,15,0.00
2013-10-22,39.1,29.5,20.6,30.8,24.6,17.9,90,83,64,30.04,29.96,6,2,9,0.00
2013-10-23,39.5,33.6,26.3,31.6,25.7,20.1,91,74,54,30.10,30.01,9,3,15,0.01
2013-10-24,42.9,35.0,27.2,29.5,25.3,22.2,89,68,51,30.33,30.10,9,3,15,0.00
2013-10-25,55.6,39.7,21.9,37.2,29.8,19.2,90,70,47,30.34,29.81,10,4,26,0.00
2013-10-26,49.0,41.9,31.0,37.2,30.9,27.0,85,65,51,30.08,29.79,12,6,17,0.00
2013-10-27,61.1,41.7,24.5,35.9,29.3,21.5,89,65,36,30.09,29.81,9,3,13,0.00
2013-10-28,44.3,37.2,30.2,31.8,26.6,22.4,79,66,49,30.40,30.09,9,4,13,0.00
2013-10-29,45.1,38.9,29.1,36.9,30.4,23.1,86,71,65,30.39,30.08,6,3,10,0.03
2013-10-30,52.5,46.7,40.5,50.2,44.3,37.0,94,91,87,30.08,29.64,6,2,11,0.08
2013-10-31,51.8,44.1,39.5,49.9,41.2,36.5,94,90,83,29.63,29.38,6,3,11,0.02
2013-11-1,51.0,43.0,33.0,38.1,36.3,29.3,90,78,57,29.84,29.39,9,5,16,0.00
2013-11-2,47.9,37.3,26.7,34.3,29.2,23.6,89,74,47,30.12,29.84,8,3,11,0.00
2013-11-3,54.0,41.7,27.2,35.3,30.4,24.4,89,66,45,30.15,29.91,15,7,25,0.00
2013-11-4,47.4,42.2,28.1,43.6,35.9,26.1,92,79,56,30.15,29.87,12,5,18,0.02
2013-11-5,45.1,33.7,22.4,37.2,30.0,19.9,92,86,68,30.25,29.95,10,3,17,0.43
2013-11-6,39.4,33.7,29.4,31.4,28.0,24.0,91,80,60,30.18,29.95,13,6,24,0.14
2013-11-7,39.2,30.9,22.8,32.3,26.8,20.3,90,85,70,30.25,30.18,8,3,14,0.00
2013-11-8,45.8,34.8,19.8,40.4,26.3,17.1,90,73,48,30.23,29.65,13,5,23,0.01
2013-11-9,45.9,41.3,33.5,40.4,33.2,25.8,82,73,59,30.19,29.65,13,8,20,0.00
2013-11-10,43.3,38.4,33.8,31.6,29.4,26.3,76,70,61,30.34,30.07,9,3,13,0.00
2013-11-11,38.9,26.1,14.9,31.1,17.2,9.3,89,69,54,30.73,30.08,12,7,16,0.00
2013-11-12,26.3,17.6,9.8,13.6,10.4,6.2,85,74,54,30.82,30.53,6,2,10,0.00
2013-11-13,47.5,33.6,17.3,33.0,22.9,11.8,79,65,55,30.53,29.93,9,4,16,0.00
2013-11-14,38.8,33.4,27.7,34.4,28.5,25.7,92,82,72,29.93,29.81,2,0,3,0.00
2013-11-15,55.5,38.9,22.5,41.0,32.0,20.0,92,77,54,29.88,29.68,7,2,10,0.01
2013-11-16,54.6,46.1,40.4,52.1,42.2,33.3,93,86,73,29.68,29.23,10,5,19,0.08
2013-11-17,44.2,39.5,32.8,39.3,34.3,25.7,92,82,75,29.81,29.31,16,6,24,0.06
2013-11-18,35.1,29.5,19.1,27.0,21.8,16.1,88,73,58,30.29,29.81,14,7,22,0.00
2013-11-19,44.3,32.8,17.7,29.1,23.6,14.8,89,71,52,30.30,29.99,14,7,21,0.00
2013-11-20,41.6,38.1,33.5,33.7,28.8,24.1,93,71,50,30.04,29.94,11,6,19,0.07
2013-11-21,37.3,31.8,24.3,35.7,29.4,21.3,94,90,83,30.48,30.03,12,5,19,0.06
2013-11-22,28.4,21.6,12.6,21.4,15.1,9.3,89,76,58,30.61,30.48,13,4,18,0.01
2013-11-23,16.7,10.7,4.3,7.6,2.5,-0.4,83,70,55,30.85,30.60,14,6,16,0.00
2013-11-24,25.8,15.8,2.7,14.6,7.0,-1.3,83,69,53,30.78,30.12,10,5,19,0.00
2013-11-25,40.8,32.8,24.8,28.8,23.2,14.7,75,68,59,30.11,29.97,11,6,16,0.01
2013-11-26,31.9,21.7,13.9,22.5,9.2,2.5,71,58,44,30.38,30.07,16,9,21,0.00
2013-11-27,24.4,17.4,7.3,11.2,7.6,3.2,84,66,52,30.41,30.12,7,3,12,0.00
2013-11-28,29.7,22.3,10.1,14.7,12.3,6.2,85,66,52,30.55,30.11,11,4,14,0.00
2013-11-29,32.6,22.5,7.0,22.1,14.4,2.9,85,72,55,30.56,30.21,9,4,16,0.00
2013-11-30,41.5,33.3,26.6,28.4,25.0,21.7,85,72,59,30.20,30.03,6,2,8,0.00
2013-12-1,36.0,28.1,18.6,26.4,22.6,15.6,89,80,65,30.19,29.95,3,0,4,0.00
2013-12-2,38.8,31.8,20.6,32.5,28.2,17.5,91,87,76,29.95,29.61,9,4,16,0.11
2013-12-3,35.5,34.1,32.5,33.2,32.1,30.7,94,92,90,29.76,29.59,6,3,9,0.12
2013-12-4,33.0,30.1,16.3,31.3,27.8,11.8,94,91,81,29.76,29.45,12,5,18,0.22
2013-12-5,15.8,8.4,2.9,11.0,2.5,-3.0,82,76,70,30.41,29.75,12,8,22,0.00
2013-12-6,6.9,3.2,-1.9,0.0,-3.2,-7.3,77,74,72,30.66,30.39,9,6,12,0.00
2013-12-7,6.2,2.6,-5.9,-2.5,-4.8,-11.2,77,71,62,30.80,30.66,6,2,10,0.00
2013-12-8,14.3,10.0,3.6,9.0,5.4,-2.3,84,81,76,30.65,30.07,7,3,13,0.04
2013-12-9,11.9,2.3,-5.4,8.3,-3.3,-10.5,85,77,66,30.19,29.99,10,3,18,0.00
2013-12-10,15.3,9.5,3.1,11.1,3.5,-3.0,85,76,65,30.27,29.85,13,5,24,0.00
2013-12-11,14.9,-1.0,-7.2,10.4,-8.2,-13.2,82,71,60,30.62,30.27,12,4,14,0.00
2013-12-12,20.5,13.2,3.1,12.8,7.3,-3.6,86,77,68,30.44,30.19,4,2,9,0.00
2013-12-13,18.7,15.2,10.1,12.7,9.5,7.0,87,78,71,30.28,30.15,9,4,16,0.00
2013-12-14,16.1,12.1,2.0,9.7,6.7,-4.1,83,79,74,30.28,30.10,10,4,11,0.02
2013-12-15,5.6,2.9,0.0,-3.6,-4.9,-6.5,76,69,62,30.20,30.13,10,4,14,0.00
2013-12-16,21.0,10.3,1.9,17.7,4.5,-7.2,89,77,65,30.19,29.99,8,3,11,0.04
2013-12-17,31.2,23.1,4.4,25.6,16.5,0.6,86,76,62,30.14,29.93,12,6,20,0.00
2013-12-18,37.1,21.2,1.5,28.5,15.9,-2.5,91,81,65,30.12,29.69,9,2,13,0.00
2013-12-19,22.4,19.2,13.5,17.0,14.0,10.4,91,80,72,30.06,29.81,10,5,16,0.00
2013-12-20,21.0,19.1,16.9,15.2,13.9,12.1,83,80,76,30.01,29.87,8,3,12,0.00
2013-12-21,24.2,21.3,18.6,18.6,16.2,14.3,85,81,76,29.98,29.87,8,3,11,0.00
2013-12-22,22.5,16.3,2.4,17.3,11.3,-2.6,84,81,77,30.26,29.92,11,6,16,0.00
2013-12-23,3.9,-1.5,-4.8,-0.9,-7.7,-10.5,80,74,67,30.57,30.27,9,5,14,0.00
2013-12-24,10.3,0.4,-11.6,4.4,-5.8,-16.4,84,75,51,30.58,30.24,8,3,11,0.15
2013-12-25,29.3,16.7,8.8,25.3,12.9,4.4,89,85,79,30.24,30.08,9,3,13,0.05
2013-12-26,27.2,20.5,12.4,22.2,16.4,8.9,88,84,76,30.21,30.11,3,0,5,0.00
2013-12-27,39.4,24.3,6.8,30.8,19.6,3.0,90,82,70,30.21,29.94,7,2,12,0.00
2013-12-28,55.4,29.2,17.0,41.7,24.2,14.1,92,82,60,30.02,0.00,16,2,23,0.00
2013-12-29,26.2,3.0,-12.4,22.8,-4.2,-18.2,87,72,55,30.37,29.92,18,8,26,0.00
2013-12-30,2.9,-6.7,-16.2,-2.4,-12.2,-21.0,81,77,69,30.38,30.26,5,1,9,0.02
2013-12-31,2.7,-2.5,-12.6,-5.4,-9.2,-17.8,81,73,67,30.47,30.37,6,2,9,0.00
2014-1-1,4.8,-0.7,-11.2,-3.9,-8.2,-15.6,81,70,62,30.53,30.45,7,4,13,0.00
2014-1-2,2.8,-4.0,-16.5,-6.4,-11.1,-21.6,78,71,59,30.55,30.46,6,2,12,0.00